[[{"header":{"parameterUnit":"m.s-1","parameterCategory":1,"la1":30.2991,"la2":30.254,"lo1":-89.0895,"lo2":-89.0444,"dy":0.0017,"dx":0.0017,"nx":28,"ny":28,"refTime":"2024-05-21T03:00:00:Z","depth":0,"parameterNumber":2,"parameterNumberName":"U-component_of_WINDS"},"data":[0,0,0,0,0,0,0,0,0,0,0,0,0,0,0,0,0,0,0,0,0,0,0,0,0,0,0,0,0,0,0,0,0,0,0,0,0,0,0,0,0,0,0,0,0,0,0,0,0,0,0,0,0,0,0,0,0,0,-2.0868,-2.0868,0,-2.0884,-2.0884,-2.0884,-2.0849,-2.0848,-2.0847,-2.0846,-2.0862,-2.0864,-2.0865,0,0,0,0,0,0,0,0,0,0,0,0,0,-2.0807,-2.0808,-2.0868,-2.0868,-2.0868,-2.0884,-2.0884,-2.0884,-2.0849,-2.0848,-2.0847,-2.0845,-2.0862,-2.0864,-2.0865,0,0,0,0,0,0,0,0,0,0,0,0,0,-2.0829,-2.0809,-2.0868,-2.0853,-2.0851,-2.0884,-2.0884,-2.0884,-2.085,-2.0848,-2.0846,-2.0845,-2.0861,-2.0864,-2.0866,-2.0914,0,0,-2.0873,-2.0874,0,0,0,0,0,0,0,0,-2.0828,-2.0832,-2.0855,-2.0854,-2.0852,-2.0863,-2.0869,-2.0894,-2.085,-2.085,-2.0846,-2.0844,-2.0864,-2.0866,-2.0873,-2.0914,-2.0915,-2.0873,-2.0874,-2.0875,-2.0876,0,0,0,0,0,0,0,-2.0827,-2.0831,-2.0874,-2.0855,-2.0854,-2.0845,-2.0846,-2.0873,-2.0866,-2.085,-2.0848,-2.085,-2.0863,-2.0871,-2.0873,-2.0915,-2.0873,-2.0875,-2.0876,-2.0877,-2.0997,-2.0999,0,0,0,0,0,0,-2.0827,-2.083,-2.0874,-2.0875,-2.0836,-2.0848,-2.0849,-2.0861,-2.0866,-2.0865,-2.0851,-2.0848,-2.0868,-2.087,-2.0873,-2.0929,-2.0875,-2.0877,-2.0879,-2.0996,-2.0998,-2.1,0,0,0,0,0,0,-2.0826,-2.0831,-2.0873,-2.0851,-2.0856,-2.085,-2.0864,-2.0862,-2.087,-2.0867,-2.0866,-2.086,-2.0866,-2.087,-2.0904,-2.0929,-2.0878,-2.088,-2.0993,-2.0996,-2.0999,-2.1042,0,0,0,0,0,0,-2.0824,-2.0831,-2.0849,-2.0852,-2.0857,-2.0903,-2.0866,-2.0864,-2.0874,-2.087,-2.0875,-2.0874,-2.0865,-2.0901,-2.0906,-2.0932,-2.0882,-2.0991,-2.0995,-2.0998,-2.1039,-2.1046,-2.1053,0,0,0,0,0,-2.0822,-2.0861,-2.085,-2.0856,-2.088,-2.0905,-2.0908,-2.0897,-2.0876,-2.0894,-2.0892,-2.0874,-2.0926,-2.0904,-2.091,-2.0937,-2.0989,-2.0994,-2.0998,-2.1035,-2.1045,-2.1053,0,0,0,0,0,0,-2.0861,-2.0861,-2.0849,-2.089,-2.0898,-2.0899,-2.0921,-2.0907,-2.0921,-2.0917,-2.0902,-2.0904,-2.094,-2.0942,-2.0918,-2.0984,-2.0954,-2.096,-2.0981,-2.099,-2.0997,-2.0995,-2.0884,0,0,0,0,0,-2.0874,-2.0894,-2.0893,-2.0929,-2.0934,-2.0927,-2.0938,-2.0928,-2.0936,-2.0939,-2.094,-2.0948,-2.0966,-2.0978,-2.0995,-2.1039,-2.104,-2.106,-2.1067,-2.1073,-2.1078,-2.1102,-2.1111,-2.1014,-2.1013,-2.1013,0,0,-2.0902,-2.0904,-2.0918,-2.0937,-2.0942,-2.0964,-2.093,-2.0954,-2.097,-2.0943,-2.0974,-2.0976,-2.0984,-2.1023,-2.104,-2.1026,-2.1105,-2.1079,-2.1083,-2.1085,-2.1107,-2.1116,-2.1124,-2.1016,-2.1016,-2.1015,0,0,-2.0963,-2.0967,-2.0997,-2.1003,-2.1011,-2.1006,-2.1014,-2.1017,-2.1017,-2.1049,-2.1029,-2.1047,-2.1079,-2.1085,-2.1093,-2.1157,-2.114,-2.1163,-2.12,-2.1223,-2.123,-2.1237,-2.126,-2.1268,-2.1168,-2.1168,-2.1168,0,-2.0996,-2.1027,-2.1015,-2.104,-2.1049,-2.1026,-2.1056,-2.1063,-2.1076,-2.1083,-2.1066,-2.1105,-2.1109,-2.1149,-2.1165,-2.1172,-2.118,-2.1162,-2.123,-2.1237,-2.1243,-2.1264,-2.1273,-2.117,-2.117,-2.117,-2.1169,0,-2.1068,-2.109,-2.1113,-2.1126,-2.1138,-2.1166,-2.1158,-2.1172,-2.1161,-2.1159,-2.1191,-2.1195,-2.1212,-2.1221,-2.1211,-2.126,-2.1251,-2.1233,-2.1203,-2.1255,-2.1275,-2.1283,-2.1174,-2.1173,-2.1172,-2.1172,0,0,-2.1153,-2.1159,-2.1168,-2.1173,-2.1181,-2.1197,-2.1225,-2.1241,-2.1253,-2.1263,-2.1285,-2.1312,-2.1295,-2.1304,-2.1295,-2.1315,-2.1366,-2.1295,-2.1294,-2.1307,-2.1419,-2.1433,-2.1442,-2.1355,-2.1357,-2.1358,-2.1419,0,-2.1213,-2.1259,-2.1249,-2.1294,-2.1315,-2.1293,-2.1316,-2.1323,-2.1322,-2.1339,-2.1337,-2.1356,-2.1333,-2.1338,-2.1357,-2.1355,-2.1388,-2.1351,-2.1375,-2.1376,-2.1373,-2.1453,-2.1467,-2.1524,-2.1426,-2.1428,-2.1428,0,-2.1289,-2.1302,-2.135,-2.1353,-2.1362,-2.1383,-2.1397,-2.1414,-2.1421,-2.1419,-2.1428,-2.1415,-2.1442,-2.1413,-2.1449,-2.1425,-2.1434,-2.1435,-2.1437,-2.1438,-2.1405,-2.1456,-2.1542,-2.155,-2.1441,-2.144,-2.1439,0,-2.1346,-2.1375,-2.1408,-2.1413,-2.1419,-2.1434,-2.1437,-2.1443,-2.1454,-2.1466,-2.1473,-2.1489,-2.1497,-2.151,-2.1501,-2.1481,-2.154,-2.1509,-2.1538,-2.1538,-2.1551,-2.155,-2.1639,-2.1558,-2.1558,-2.1558,-2.1557,0,-2.1414,-2.1444,-2.1433,-2.1453,-2.1486,-2.1474,-2.1507,-2.1507,-2.1513,-2.1532,-2.1515,-2.1533,-2.1522,-2.1539,-2.1533,-2.1565,-2.1569,-2.1567,-2.1565,-2.1568,-2.1569,-2.1574,-2.157,-2.156,-2.1559,-2.1559,-2.1559,0,-2.1483,-2.1477,-2.1511,-2.1513,-2.1515,-2.1539,-2.1541,-2.1559,-2.1556,-2.1581,-2.1586,-2.1582,-2.1602,-2.1595,-2.1617,-2.1612,-2.1652,-2.1645,-2.165,-2.1648,-2.1676,-2.1674,-2.1772,-2.1784,-2.1695,-2.1696,-2.1697,0,-2.1527,-2.1549,-2.1554,-2.1566,-2.157,-2.159,-2.16,-2.1589,-2.1601,-2.1612,-2.1629,-2.1647,-2.1662,-2.1695,-2.1693,-2.171,-2.1703,-2.1736,-2.1705,-2.1708,-2.1703,-2.1701,-2.1704,-2.1742,-2.1743,-2.1744,-2.1745,0,-2.1605,-2.1601,-2.1617,-2.1632,-2.1645,-2.1656,-2.1666,-2.1677,-2.1667,-2.1681,-2.1701,-2.1712,-2.1734,-2.1753,-2.1768,-2.1771,-2.1756,-2.1755,-2.1762,-2.1765,-2.1767,-2.1766,-2.1666,-2.1752,-2.1751,-2.1751,-2.175,-2.175,-2.1662,-2.1681,-2.1688,-2.1706,-2.1712,-2.1722,-2.1739,-2.1738,-2.1755,-2.1772,-2.1764,-2.1788,-2.1795,-2.1813,-2.1819,-2.1837,-2.1824,-2.1835,-2.1838,-2.184,-2.1844,-2.1764,-2.184,-2.1839,-2.1839,-2.1839,-2.1839,0,-2.1739,-2.1742,-2.1759,-2.1773,-2.1788,-2.1773,-2.1783,-2.1796,-2.1817,-2.1825,-2.1839,-2.1862,-2.188,-2.188,-2.1897,-2.1912,-2.1905,-2.1916,-2.1915,-2.1916,-2.1855,-2.1846,-2.1921,-2.1921,-2.1921,-2.1921,-2.1921,-2.1921,-2.1781,-2.1812,-2.1808,-2.1842,-2.1845,-2.1868,-2.1875,-2.1884,-2.189,-2.1916,-2.1931,-2.1931,-2.1936,-2.1953,-2.1969,-2.1968,-2.1975,-2.1989,-2.1986,-2.1928,-2.192,-2.1912,-2.1904,-2.199,-2.199,-2.2045,-2.2046,-2.2046]},{"header":{"parameterUnit":"m.s-1","parameterCategory":1,"la1":30.2991,"la2":30.254,"lo1":-89.0895,"lo2":-89.0444,"dy":0.0017,"dx":0.0017,"nx":28,"ny":28,"refTime":"2024-05-21T03:00:00:Z","depth":0,"parameterNumber":3,"parameterNumberName":"V-component_of_WINDS"},"data":[0,0,0,0,0,0,0,0,0,0,0,0,0,0,0,0,0,0,0,0,0,0,0,0,0,0,0,0,0,0,0,0,0,0,0,0,0,0,0,0,0,0,0,0,0,0,0,0,0,0,0,0,0,0,0,0,0,0,3.0337,3.0337,0,3.0375,3.0375,3.0376,3.0361,3.036,3.0359,3.0358,3.0393,3.0395,3.0397,0,0,0,0,0,0,0,0,0,0,0,0,0,3.0247,3.0249,3.0337,3.0337,3.0338,3.0375,3.0375,3.0376,3.0361,3.036,3.0359,3.0358,3.0393,3.0395,3.0397,0,0,0,0,0,0,0,0,0,0,0,0,0,3.0285,3.0249,3.0336,3.0335,3.0335,3.0375,3.0375,3.0376,3.0361,3.036,3.0358,3.0357,3.0392,3.0395,3.0397,3.044,0,0,3.0405,3.0407,0,0,0,0,0,0,0,0,3.0283,3.0289,3.0334,3.0335,3.0335,3.0362,3.0357,3.0397,3.0361,3.0351,3.0358,3.0356,3.0384,3.0387,3.0397,3.0442,3.0443,3.0406,3.0407,3.0408,3.0409,0,0,0,0,0,0,0,3.0281,3.0287,3.0352,3.0335,3.0335,3.0331,3.0335,3.0364,3.0374,3.0352,3.0351,3.0356,3.0384,3.0394,3.0398,3.0444,3.0406,3.0408,3.041,3.0411,3.0526,3.0528,0,0,0,0,0,0,3.0278,3.0285,3.035,3.0353,3.0305,3.0333,3.0338,3.0354,3.0374,3.0376,3.0357,3.0355,3.0391,3.0395,3.0399,3.045,3.0408,3.0411,3.0412,3.0525,3.0526,3.0528,0,0,0,0,0,0,3.0276,3.0284,3.0349,3.0319,3.0326,3.0336,3.0355,3.0356,3.0367,3.0378,3.0379,3.0366,3.039,3.0395,3.043,3.0451,3.0412,3.0415,3.0523,3.0525,3.0527,3.0554,0,0,0,0,0,0,3.0274,3.0284,3.0301,3.0319,3.0328,3.0381,3.0356,3.0358,3.0372,3.037,3.0387,3.0388,3.0389,3.0427,3.0433,3.0454,3.0417,3.0521,3.0524,3.0527,3.0551,3.0557,3.0562,0,0,0,0,0,3.0271,3.0306,3.0302,3.031,3.035,3.0382,3.0387,3.0388,3.0374,3.039,3.0397,3.0388,3.0448,3.043,3.0437,3.046,3.052,3.0523,3.0526,3.0549,3.0556,3.0562,0,0,0,0,0,0,3.0289,3.0308,3.0304,3.0346,3.0363,3.0379,3.0401,3.0395,3.0415,3.0412,3.0411,3.0415,3.0452,3.0459,3.0439,3.0503,3.0482,3.0486,3.0496,3.0503,3.0508,3.0505,3.0419,0,0,0,0,0,3.0298,3.0323,3.0339,3.0375,3.0383,3.0391,3.0405,3.0404,3.0421,3.0427,3.0437,3.0452,3.0474,3.0489,3.051,3.0552,3.0556,3.0571,3.0577,3.0581,3.0585,3.0608,3.0615,3.0539,3.0539,3.0539,0,0,3.0316,3.033,3.0346,3.0379,3.0391,3.0417,3.0397,3.0424,3.0443,3.0431,3.0465,3.0473,3.049,3.0529,3.0546,3.0536,3.0607,3.0585,3.0588,3.059,3.0612,3.0619,3.0625,3.0541,3.0541,3.054,0,0,3.0363,3.0377,3.0409,3.0422,3.0442,3.0447,3.0454,3.0472,3.0477,3.0512,3.0503,3.0525,3.0563,3.0576,3.0587,3.064,3.0632,3.0647,3.0674,3.0696,3.0702,3.0707,3.0726,3.0732,3.0651,3.0651,3.0651,0,3.0384,3.0423,3.0425,3.0454,3.0468,3.046,3.0491,3.0504,3.0529,3.0539,3.0527,3.0576,3.0586,3.0628,3.0641,3.0651,3.0659,3.0644,3.0701,3.0706,3.0711,3.0729,3.0736,3.0653,3.0652,3.0652,3.0652,0,3.0447,3.0474,3.0497,3.0524,3.054,3.057,3.0576,3.0592,3.059,3.0596,3.0631,3.0644,3.0668,3.0678,3.0675,3.0719,3.0712,3.0701,3.068,3.072,3.0737,3.0743,3.0655,3.0654,3.0654,3.0653,0,0,3.0506,3.0534,3.0542,3.0554,3.0576,3.0596,3.0625,3.065,3.0664,3.0682,3.0706,3.0739,3.0729,3.0742,3.0741,3.0761,3.0801,3.0747,3.0747,3.0756,3.085,3.0858,3.0866,3.0796,3.0797,3.0798,3.0848,0,3.0555,3.0608,3.061,3.0658,3.0683,3.0676,3.0701,3.0716,3.0723,3.0744,3.075,3.0774,3.0758,3.0766,3.0785,3.0792,3.082,3.0789,3.0818,3.0819,3.0814,3.0875,3.0884,3.093,3.0855,3.0856,3.0857,0,3.0619,3.064,3.0691,3.0709,3.072,3.0743,3.0765,3.0786,3.0803,3.0806,3.0821,3.0818,3.0846,3.0825,3.0864,3.0843,3.0855,3.086,3.0862,3.0864,3.084,3.0879,3.0945,3.0952,3.0867,3.0866,3.0866,0,3.0657,3.0698,3.0733,3.0744,3.0766,3.0783,3.0792,3.0808,3.0823,3.0842,3.0852,3.0874,3.0886,3.0903,3.0905,3.0889,3.0945,3.0923,3.0947,3.0947,3.0959,3.0958,3.1028,3.0967,3.0967,3.0967,3.0967,0,3.0711,3.0742,3.0751,3.0773,3.0807,3.081,3.0843,3.0852,3.0866,3.0889,3.0883,3.0904,3.0906,3.0927,3.0929,3.0961,3.0967,3.0969,3.0969,3.097,3.097,3.0977,3.0974,3.0969,3.0968,3.0968,3.0968,0,3.0759,3.0766,3.0805,3.0823,3.0829,3.0853,3.0868,3.0889,3.0895,3.0923,3.093,3.0939,3.0964,3.0968,3.0997,3.0998,3.1036,3.1033,3.1031,3.1031,3.1055,3.1052,3.1132,3.1142,3.1075,3.1075,3.1076,0,3.0793,3.0817,3.0839,3.0854,3.0865,3.089,3.0905,3.0908,3.0924,3.0946,3.0963,3.0988,3.1008,3.1048,3.1056,3.1078,3.1075,3.1102,3.1078,3.1078,3.1076,3.1074,3.1076,3.1106,3.1107,3.1107,3.1108,0,3.0853,3.0855,3.0878,3.0903,3.0922,3.0941,3.0959,3.0971,3.0977,3.0995,3.1021,3.1036,3.1067,3.1091,3.1113,3.1122,3.1116,3.1115,3.1122,3.1123,3.112,3.1122,3.1043,3.1113,3.1113,3.1112,3.1112,3.1112,3.0895,3.0916,3.0935,3.096,3.0975,3.0992,3.1012,3.1021,3.1043,3.1069,3.1069,3.1098,3.1114,3.1143,3.1153,3.1175,3.1166,3.1176,3.1178,3.1181,3.1183,3.1117,3.1179,3.1179,3.1179,3.1178,3.1178,0,3.0954,3.0966,3.099,3.1016,3.1036,3.103,3.105,3.1066,3.1092,3.1108,3.1129,3.1158,3.1182,3.1193,3.1216,3.1231,3.1229,3.1237,3.1236,3.1238,3.119,3.1181,3.1238,3.1238,3.1238,3.1238,3.1238,3.1238,3.0987,3.1023,3.1028,3.107,3.1081,3.111,3.1122,3.1137,3.115,3.1185,3.1205,3.1212,3.1226,3.125,3.1271,3.1273,3.1282,3.1291,3.1292,3.1247,3.1241,3.1235,3.1228,3.1293,3.1293,3.1338,3.1339,3.1339]}]]